Time,TemperatureF,DewpointF,PressureIn,WindDirection,WindDirectionDegrees,WindSpeedMPH,WindSpeedGustMPH,Humidity,HourlyPrecipIn,Conditions,Clouds,dailyrainin,SoftwareType,DateUTC
2013-11-08 00:01:00,34.7,33.9,29.38,NW,305,0.0,0.0,97,0.00,,,0.00,VWS V13.01,2013-11-08 06:01:00,
2013-11-08 00:02:00,34.9,34.1,29.38,NW,305,0.0,0.0,97,0.00,,,0.00,VWS V13.01,2013-11-08 06:02:00,
2013-11-08 00:03:00,34.9,34.1,29.38,NW,305,0.0,0.0,97,0.00,,,0.00,VWS V13.01,2013-11-08 06:03:00,
2013-11-08 00:06:00,35.1,34.3,29.38,NW,305,0.0,0.0,97,0.00,,,0.00,VWS V13.01,2013-11-08 06:06:00,
2013-11-08 00:07:00,35.1,34.3,29.38,NW,305,0.0,0.0,97,0.00,,,0.00,VWS V13.01,2013-11-08 06:07:00,
2013-11-08 00:08:00,35.1,34.3,29.38,NW,305,0.0,0.0,97,0.00,,,0.00,VWS V13.01,2013-11-08 06:08:00,
2013-11-08 00:11:00,34.9,34.1,29.38,NW,305,0.0,0.0,97,0.00,,,0.00,VWS V13.01,2013-11-08 06:11:00,
2013-11-08 00:12:00,34.9,34.1,29.38,NW,305,0.0,0.0,97,0.00,,,0.00,VWS V13.01,2013-11-08 06:12:00,
2013-11-08 00:13:00,34.9,34.1,29.38,NW,305,0.0,0.0,97,0.00,,,0.00,VWS V13.01,2013-11-08 06:13:00,
2013-11-08 00:16:00,34.9,34.1,29.38,NW,305,0.0,0.0,97,0.00,,,0.00,VWS V13.01,2013-11-08 06:16:00,
2013-11-08 00:17:00,34.9,34.1,29.38,NW,305,0.0,0.0,97,0.00,,,0.00,VWS V13.01,2013-11-08 06:17:00,
2013-11-08 00:18:00,34.7,33.9,29.38,NW,305,0.0,0.0,97,0.00,,,0.00,VWS V13.01,2013-11-08 06:18:00,
2013-11-08 00:22:00,34.9,34.1,29.38,NW,305,0.0,0.0,97,0.00,,,0.00,VWS V13.01,2013-11-08 06:22:00,
2013-11-08 00:23:00,34.9,34.1,29.38,NW,305,0.0,0.0,97,0.00,,,0.00,VWS V13.01,2013-11-08 06:23:00,
2013-11-08 00:27:00,35.1,34.3,29.38,NW,305,0.0,0.0,97,0.00,,,0.00,VWS V13.01,2013-11-08 06:27:00,
2013-11-08 00:28:00,35.2,34.5,29.38,NW,305,0.0,0.0,97,0.00,,,0.00,VWS V13.01,2013-11-08 06:28:00,
2013-11-08 00:29:00,35.2,34.5,29.38,NW,305,0.0,0.0,97,0.00,,,0.00,VWS V13.01,2013-11-08 06:29:00,
2013-11-08 00:32:00,35.2,34.5,29.38,NW,305,0.0,0.0,97,0.00,,,0.00,VWS V13.01,2013-11-08 06:32:00,
2013-11-08 00:33:00,35.1,34.3,29.38,NW,305,0.0,0.0,97,0.00,,,0.00,VWS V13.01,2013-11-08 06:33:00,
2013-11-08 00:34:00,34.9,34.1,29.38,NW,305,0.0,0.0,97,0.00,,,0.00,VWS V13.01,2013-11-08 06:34:00,
2013-11-08 00:37:00,34.5,33.8,29.38,NW,305,0.0,0.0,97,0.00,,,0.00,VWS V13.01,2013-11-08 06:37:00,
2013-11-08 00:38:00,34.5,33.8,29.38,NW,305,0.0,0.0,97,0.00,,,0.00,VWS V13.01,2013-11-08 06:38:00,
2013-11-08 00:40:00,34.3,33.6,29.38,NW,305,0.0,0.0,97,0.00,,,0.00,VWS V13.01,2013-11-08 06:40:00,
2013-11-08 00:42:00,34.3,33.6,29.38,NW,305,0.0,0.0,97,0.00,,,0.00,VWS V13.01,2013-11-08 06:42:00,
2013-11-08 00:43:00,34.3,33.6,29.38,NW,305,0.0,0.0,97,0.00,,,0.00,VWS V13.01,2013-11-08 06:43:00,
2013-11-08 00:45:00,34.5,33.8,29.38,NW,305,0.0,0.0,97,0.00,,,0.00,VWS V13.01,2013-11-08 06:45:00,
2013-11-08 00:47:00,34.5,33.8,29.38,NW,305,0.0,0.0,97,0.00,,,0.00,VWS V13.01,2013-11-08 06:47:00,
2013-11-08 00:48:00,34.5,33.8,29.38,NW,305,0.0,0.0,97,0.00,,,0.00,VWS V13.01,2013-11-08 06:48:00,
2013-11-08 00:50:00,34.7,33.9,29.38,NW,305,0.0,0.0,97,0.00,,,0.00,VWS V13.01,2013-11-08 06:50:00,
2013-11-08 00:52:00,34.9,34.1,29.38,NW,305,0.0,0.0,97,0.00,,,0.00,VWS V13.01,2013-11-08 06:52:00,
2013-11-08 00:53:00,34.9,34.1,29.38,NW,305,0.0,0.0,97,0.00,,,0.00,VWS V13.01,2013-11-08 06:53:00,
2013-11-08 00:55:00,35.1,34.3,29.38,NW,305,0.0,0.0,97,0.00,,,0.00,VWS V13.01,2013-11-08 06:55:00,
2013-11-08 00:57:00,35.2,34.5,29.38,NW,305,0.0,0.0,97,0.00,,,0.00,VWS V13.01,2013-11-08 06:57:00,
2013-11-08 00:58:00,35.2,34.5,29.38,NW,305,0.0,0.0,97,0.00,,,0.00,VWS V13.01,2013-11-08 06:58:00,
2013-11-08 00:59:00,35.4,34.7,29.38,NW,305,0.0,0.0,97,0.00,,,0.00,VWS V13.01,2013-11-08 06:59:00,
2013-11-08 01:01:00,35.2,34.5,29.38,NW,305,0.0,0.0,97,0.00,,,0.00,VWS V13.01,2013-11-08 07:01:00,
2013-11-08 01:02:00,35.1,34.3,29.38,NW,305,0.0,0.0,97,0.00,,,0.00,VWS V13.01,2013-11-08 07:02:00,
2013-11-08 01:03:00,34.9,34.1,29.38,NW,305,0.0,0.0,97,0.00,,,0.00,VWS V13.01,2013-11-08 07:03:00,
2013-11-08 01:04:00,34.9,34.1,29.38,NW,305,0.0,0.0,97,0.00,,,0.00,VWS V13.01,2013-11-08 07:04:00,
2013-11-08 01:06:00,34.5,33.8,29.38,NW,305,0.0,0.0,97,0.00,,,0.00,VWS V13.01,2013-11-08 07:06:00,
2013-11-08 01:07:00,34.3,33.6,29.38,NW,305,0.0,0.0,97,0.00,,,0.00,VWS V13.01,2013-11-08 07:07:00,
2013-11-08 01:08:00,34.3,33.6,29.38,NW,305,0.0,0.0,97,0.00,,,0.00,VWS V13.01,2013-11-08 07:08:00,
2013-11-08 01:09:00,34.3,33.6,29.38,NW,305,0.0,0.0,97,0.00,,,0.00,VWS V13.01,2013-11-08 07:09:00,
2013-11-08 01:12:00,34.5,33.8,29.38,NW,305,0.0,0.0,97,0.00,,,0.00,VWS V13.01,2013-11-08 07:12:00,
2013-11-08 01:13:00,34.5,33.8,29.38,NW,305,0.0,0.0,97,0.00,,,0.00,VWS V13.01,2013-11-08 07:13:00,
2013-11-08 01:14:00,34.5,33.8,29.38,NW,305,0.0,0.0,97,0.00,,,0.00,VWS V13.01,2013-11-08 07:14:00,
2013-11-08 01:17:00,34.3,33.6,29.38,NW,305,0.0,0.0,97,0.00,,,0.00,VWS V13.01,2013-11-08 07:17:00,
2013-11-08 01:18:00,34.2,33.4,29.38,NW,305,0.0,0.0,97,0.00,,,0.00,VWS V13.01,2013-11-08 07:18:00,
2013-11-08 01:20:00,34.0,33.2,29.38,NW,305,0.0,0.0,97,0.00,,,0.00,VWS V13.01,2013-11-08 07:20:00,
2013-11-08 01:22:00,34.0,33.2,29.38,NW,305,0.0,0.0,97,0.00,,,0.00,VWS V13.01,2013-11-08 07:22:00,
2013-11-08 01:23:00,34.2,33.4,29.38,NW,305,0.0,0.0,97,0.00,,,0.00,VWS V13.01,2013-11-08 07:23:00,
2013-11-08 01:25:00,34.3,33.6,29.38,NW,305,0.0,0.0,97,0.00,,,0.00,VWS V13.01,2013-11-08 07:25:00,
2013-11-08 01:27:00,34.2,33.4,29.38,NW,305,0.0,0.0,97,0.00,,,0.00,VWS V13.01,2013-11-08 07:27:00,
2013-11-08 01:28:00,34.0,33.2,29.38,NW,305,0.0,0.0,97,0.00,,,0.00,VWS V13.01,2013-11-08 07:28:00,
2013-11-08 01:30:00,33.8,33.0,29.38,NW,305,0.0,0.0,97,0.00,,,0.00,VWS V13.01,2013-11-08 07:30:00,
2013-11-08 01:32:00,33.8,33.0,29.38,NW,305,0.0,0.0,97,0.00,,,0.00,VWS V13.01,2013-11-08 07:32:00,
2013-11-08 01:33:00,33.8,33.0,29.38,NW,305,0.0,0.0,97,0.00,,,0.00,VWS V13.01,2013-11-08 07:33:00,
2013-11-08 01:35:00,33.8,33.0,29.38,NW,305,0.0,0.0,97,0.00,,,0.00,VWS V13.01,2013-11-08 07:35:00,
2013-11-08 01:37:00,33.6,32.9,29.38,NW,305,0.0,0.0,97,0.00,,,0.00,VWS V13.01,2013-11-08 07:37:00,
2013-11-08 01:38:00,34.0,33.2,29.38,NW,305,0.0,0.0,97,0.00,,,0.00,VWS V13.01,2013-11-08 07:38:00,
2013-11-08 01:39:00,34.2,33.4,29.38,NW,305,0.0,0.0,97,0.00,,,0.00,VWS V13.01,2013-11-08 07:39:00,
2013-11-08 01:40:00,34.5,33.8,29.38,NW,305,0.0,0.0,97,0.00,,,0.00,VWS V13.01,2013-11-08 07:40:00,
2013-11-08 01:42:00,34.3,33.6,29.38,NW,305,0.0,0.0,97,0.00,,,0.00,VWS V13.01,2013-11-08 07:42:00,
2013-11-08 01:43:00,34.3,33.6,29.38,NW,305,0.0,0.0,97,0.00,,,0.00,VWS V13.01,2013-11-08 07:43:00,
2013-11-08 01:44:00,34.3,33.6,29.38,NW,305,0.0,0.0,97,0.00,,,0.00,VWS V13.01,2013-11-08 07:44:00,
2013-11-08 01:45:00,34.2,33.4,29.38,NW,305,0.0,0.0,97,0.00,,,0.00,VWS V13.01,2013-11-08 07:45:00,
2013-11-08 01:47:00,34.3,33.6,29.38,NW,305,0.0,0.0,97,0.00,,,0.00,VWS V13.01,2013-11-08 07:47:00,
2013-11-08 01:48:00,34.3,33.6,29.38,NW,305,0.0,0.0,97,0.00,,,0.00,VWS V13.01,2013-11-08 07:48:00,
2013-11-08 01:49:00,34.3,33.6,29.38,NW,305,0.0,0.0,97,0.00,,,0.00,VWS V13.01,2013-11-08 07:49:00,
2013-11-08 01:50:00,34.5,33.8,29.38,NW,305,0.0,0.0,97,0.00,,,0.00,VWS V13.01,2013-11-08 07:50:00,
2013-11-08 01:52:00,34.3,33.6,29.38,NW,305,0.0,0.0,97,0.00,,,0.00,VWS V13.01,2013-11-08 07:52:00,
2013-11-08 01:53:00,34.3,33.6,29.38,NW,305,0.0,0.0,97,0.00,,,0.00,VWS V13.01,2013-11-08 07:53:00,
2013-11-08 01:54:00,34.3,33.6,29.38,NW,305,0.0,0.0,97,0.00,,,0.00,VWS V13.01,2013-11-08 07:54:00,
2013-11-08 01:56:00,34.3,33.6,29.35,NW,305,0.0,0.0,97,0.00,,,0.00,VWS V13.01,2013-11-08 07:56:00,
2013-11-08 01:57:00,34.3,33.6,29.35,NW,305,0.0,0.0,97,0.00,,,0.00,VWS V13.01,2013-11-08 07:57:00,
2013-11-08 01:58:00,34.2,33.4,29.35,NW,305,0.0,0.0,97,0.00,,,0.00,VWS V13.01,2013-11-08 07:58:00,
2013-11-08 01:59:00,34.2,33.4,29.35,NW,305,0.0,0.0,97,0.00,,,0.00,VWS V13.01,2013-11-08 07:59:00,
2013-11-08 02:01:00,34.0,33.2,29.35,NW,305,0.0,0.0,97,0.00,,,0.00,VWS V13.01,2013-11-08 08:01:00,
2013-11-08 02:02:00,34.2,33.4,29.35,NW,305,0.0,0.0,97,0.00,,,0.00,VWS V13.01,2013-11-08 08:02:00,
2013-11-08 02:03:00,34.2,33.4,29.35,NW,305,0.0,0.0,97,0.00,,,0.00,VWS V13.01,2013-11-08 08:03:00,
2013-11-08 02:04:00,34.2,33.4,29.35,NW,305,0.0,0.0,97,0.00,,,0.00,VWS V13.01,2013-11-08 08:04:00,
2013-11-08 02:06:00,34.2,33.4,29.35,NW,305,0.0,0.0,97,0.00,,,0.00,VWS V13.01,2013-11-08 08:06:00,
2013-11-08 02:07:00,34.2,33.4,29.35,NW,305,0.0,0.0,97,0.00,,,0.00,VWS V13.01,2013-11-08 08:07:00,
2013-11-08 02:08:00,34.2,33.4,29.35,NW,305,0.0,0.0,97,0.00,,,0.00,VWS V13.01,2013-11-08 08:08:00,
2013-11-08 02:09:00,34.2,33.4,29.35,NW,305,0.0,0.0,97,0.00,,,0.00,VWS V13.01,2013-11-08 08:09:00,
2013-11-08 02:11:00,34.5,33.8,29.35,NW,305,0.0,0.0,97,0.00,,,0.00,VWS V13.01,2013-11-08 08:11:00,
2013-11-08 02:12:00,34.5,33.8,29.35,NW,305,0.0,0.0,97,0.00,,,0.00,VWS V13.01,2013-11-08 08:12:00,
2013-11-08 02:13:00,34.5,33.8,29.35,NW,305,0.0,0.0,97,0.00,,,0.00,VWS V13.01,2013-11-08 08:13:00,
2013-11-08 02:14:00,34.5,33.8,29.35,NW,305,0.0,0.0,97,0.00,,,0.00,VWS V13.01,2013-11-08 08:14:00,
2013-11-08 02:16:00,34.5,33.8,29.35,NW,305,0.0,0.0,97,0.00,,,0.00,VWS V13.01,2013-11-08 08:16:00,
2013-11-08 02:17:00,34.7,33.9,29.35,NW,305,0.0,0.0,97,0.00,,,0.00,VWS V13.01,2013-11-08 08:17:00,
2013-11-08 02:19:00,35.1,34.3,29.35,NW,305,0.0,0.0,97,0.00,,,0.00,VWS V13.01,2013-11-08 08:19:00,
2013-11-08 02:21:00,35.2,34.5,29.35,NW,305,0.0,0.0,97,0.00,,,0.00,VWS V13.01,2013-11-08 08:21:00,
2013-11-08 02:22:00,35.1,34.3,29.35,NW,305,0.0,0.0,97,0.00,,,0.00,VWS V13.01,2013-11-08 08:22:00,
2013-11-08 02:24:00,34.9,34.1,29.35,NW,305,0.0,0.0,97,0.00,,,0.00,VWS V13.01,2013-11-08 08:24:00,
2013-11-08 02:26:00,34.9,34.1,29.35,NW,305,0.0,0.0,97,0.00,,,0.00,VWS V13.01,2013-11-08 08:26:00,
2013-11-08 02:27:00,34.9,34.1,29.35,NW,305,0.0,0.0,97,0.00,,,0.00,VWS V13.01,2013-11-08 08:27:00,
2013-11-08 02:29:00,34.9,34.1,29.35,NW,305,0.0,0.0,97,0.00,,,0.00,VWS V13.01,2013-11-08 08:29:00,
2013-11-08 02:32:00,35.1,34.3,29.35,NW,305,0.0,0.0,97,0.00,,,0.00,VWS V13.01,2013-11-08 08:32:00,
2013-11-08 02:34:00,34.9,34.1,29.35,NW,305,0.0,0.0,97,0.00,,,0.00,VWS V13.01,2013-11-08 08:34:00,
2013-11-08 02:35:00,34.9,34.1,29.35,NW,305,0.0,0.0,97,0.00,,,0.00,VWS V13.01,2013-11-08 08:35:00,
2013-11-08 02:37:00,35.1,34.3,29.35,NW,305,0.0,0.0,97,0.00,,,0.00,VWS V13.01,2013-11-08 08:37:00,
2013-11-08 02:39:00,35.2,34.5,29.35,NW,305,0.0,0.0,97,0.00,,,0.00,VWS V13.01,2013-11-08 08:39:00,
2013-11-08 02:40:00,35.2,34.5,29.35,NW,305,0.0,0.0,97,0.00,,,0.00,VWS V13.01,2013-11-08 08:40:00,
2013-11-08 02:42:00,35.2,34.5,29.35,NW,305,0.0,0.0,97,0.00,,,0.00,VWS V13.01,2013-11-08 08:42:00,
2013-11-08 02:44:00,35.4,34.7,29.35,NW,305,0.0,0.0,97,0.00,,,0.00,VWS V13.01,2013-11-08 08:44:00,
2013-11-08 02:45:00,35.4,34.7,29.35,NW,305,0.0,0.0,97,0.00,,,0.00,VWS V13.01,2013-11-08 08:45:00,
2013-11-08 02:47:00,35.4,34.7,29.35,NW,305,0.0,0.0,97,0.00,,,0.00,VWS V13.01,2013-11-08 08:47:00,
2013-11-08 02:49:00,35.6,33.2,29.35,South,177,0.0,0.0,91,0.00,,,0.00,VWS V13.01,2013-11-08 08:49:00,
2013-11-08 02:50:00,35.6,33.2,29.35,South,177,0.0,0.0,91,0.00,,,0.00,VWS V13.01,2013-11-08 08:50:00,
2013-11-08 02:52:00,35.6,33.2,29.35,South,177,0.0,0.0,91,0.00,,,0.00,VWS V13.01,2013-11-08 08:52:00,
2013-11-08 02:54:00,35.4,34.7,29.35,South,177,0.0,0.0,97,0.00,,,0.00,VWS V13.01,2013-11-08 08:54:00,
2013-11-08 02:55:00,35.2,34.5,29.35,South,177,0.0,0.0,97,0.00,,,0.00,VWS V13.01,2013-11-08 08:55:00,
2013-11-08 02:57:00,35.1,34.3,29.35,South,177,0.0,0.0,97,0.00,,,0.00,VWS V13.01,2013-11-08 08:57:00,
2013-11-08 02:59:00,34.9,34.1,29.35,South,177,0.0,0.0,97,0.00,,,0.00,VWS V13.01,2013-11-08 08:59:00,
2013-11-08 03:00:00,34.9,34.1,29.35,South,177,0.0,0.0,97,0.00,,,0.00,VWS V13.01,2013-11-08 09:00:00,
2013-11-08 03:02:00,35.1,34.3,29.35,South,177,0.0,0.0,97,0.00,,,0.00,VWS V13.01,2013-11-08 09:02:00,
2013-11-08 03:04:00,34.9,34.1,29.35,South,177,0.0,0.0,97,0.00,,,0.00,VWS V13.01,2013-11-08 09:04:00,
2013-11-08 03:05:00,34.9,34.1,29.35,South,177,0.0,0.0,97,0.00,,,0.00,VWS V13.01,2013-11-08 09:05:00,
2013-11-08 03:07:00,34.9,34.1,29.35,South,177,0.0,0.0,97,0.00,,,0.00,VWS V13.01,2013-11-08 09:07:00,
2013-11-08 03:09:00,35.1,34.3,29.35,South,177,0.0,0.0,97,0.00,,,0.00,VWS V13.01,2013-11-08 09:09:00,
2013-11-08 03:10:00,35.1,34.3,29.35,South,177,0.0,0.0,97,0.00,,,0.00,VWS V13.01,2013-11-08 09:10:00,
2013-11-08 03:11:00,35.1,34.3,29.35,South,177,0.0,0.0,97,0.00,,,0.00,VWS V13.01,2013-11-08 09:11:00,
2013-11-08 03:12:00,35.2,34.5,29.35,South,177,0.0,0.0,97,0.00,,,0.00,VWS V13.01,2013-11-08 09:12:00,
2013-11-08 03:13:00,35.2,34.5,29.35,South,177,0.0,0.0,97,0.00,,,0.00,VWS V13.01,2013-11-08 09:13:00,
2013-11-08 03:14:00,35.4,34.7,29.35,South,177,0.0,0.0,97,0.00,,,0.00,VWS V13.01,2013-11-08 09:14:00,
2013-11-08 03:15:00,35.2,34.5,29.35,South,177,0.0,0.0,97,0.00,,,0.00,VWS V13.01,2013-11-08 09:15:00,
2013-11-08 03:16:00,35.2,34.5,29.35,South,177,0.0,0.0,97,0.00,,,0.00,VWS V13.01,2013-11-08 09:16:00,
2013-11-08 03:17:00,35.4,34.7,29.35,South,177,0.0,0.0,97,0.00,,,0.00,VWS V13.01,2013-11-08 09:17:00,
2013-11-08 03:18:00,35.4,34.7,29.35,South,177,0.0,0.0,97,0.00,,,0.00,VWS V13.01,2013-11-08 09:18:00,
2013-11-08 03:19:00,35.4,34.7,29.35,South,177,0.0,0.0,97,0.00,,,0.00,VWS V13.01,2013-11-08 09:19:00,
2013-11-08 03:20:00,35.6,33.2,29.35,South,177,0.0,0.0,91,0.00,,,0.00,VWS V13.01,2013-11-08 09:20:00,
2013-11-08 03:21:00,35.6,33.2,29.35,South,177,0.0,0.0,91,0.00,,,0.00,VWS V13.01,2013-11-08 09:21:00,
2013-11-08 03:22:00,35.6,33.2,29.35,South,177,0.0,0.0,91,0.00,,,0.00,VWS V13.01,2013-11-08 09:22:00,
2013-11-08 03:23:00,35.6,33.2,29.35,South,177,0.0,0.0,91,0.00,,,0.00,VWS V13.01,2013-11-08 09:23:00,
2013-11-08 03:24:00,35.6,33.2,29.35,South,177,0.0,0.0,91,0.00,,,0.00,VWS V13.01,2013-11-08 09:24:00,
2013-11-08 03:25:00,35.8,33.4,29.35,South,177,0.0,0.0,91,0.00,,,0.00,VWS V13.01,2013-11-08 09:25:00,
2013-11-08 03:26:00,35.6,33.2,29.35,South,177,0.0,0.0,91,0.00,,,0.00,VWS V13.01,2013-11-08 09:26:00,
2013-11-08 03:27:00,35.6,33.2,29.35,South,177,0.0,0.0,91,0.00,,,0.00,VWS V13.01,2013-11-08 09:27:00,
2013-11-08 03:28:00,35.8,33.4,29.35,South,177,0.0,0.0,91,0.00,,,0.00,VWS V13.01,2013-11-08 09:28:00,
2013-11-08 03:29:00,35.8,33.4,29.35,South,177,0.0,0.0,91,0.00,,,0.00,VWS V13.01,2013-11-08 09:29:00,
2013-11-08 03:31:00,35.6,33.2,29.35,South,177,0.0,0.0,91,0.00,,,0.00,VWS V13.01,2013-11-08 09:31:00,
2013-11-08 03:32:00,35.6,33.2,29.35,South,177,0.0,0.0,91,0.00,,,0.00,VWS V13.01,2013-11-08 09:32:00,
2013-11-08 03:33:00,35.6,33.2,29.35,South,177,0.0,0.0,91,0.00,,,0.00,VWS V13.01,2013-11-08 09:33:00,
2013-11-08 03:34:00,35.4,34.7,29.35,South,177,0.0,0.0,97,0.00,,,0.00,VWS V13.01,2013-11-08 09:34:00,
2013-11-08 03:36:00,35.4,34.7,29.35,South,177,0.0,0.0,97,0.00,,,0.00,VWS V13.01,2013-11-08 09:36:00,
2013-11-08 03:38:00,35.2,34.5,29.35,South,177,0.0,0.0,97,0.00,,,0.00,VWS V13.01,2013-11-08 09:38:00,
2013-11-08 03:39:00,35.4,34.7,29.32,South,177,0.0,0.0,97,0.00,,,0.00,VWS V13.01,2013-11-08 09:39:00,
2013-11-08 03:41:00,35.6,33.2,29.32,South,177,0.0,0.0,91,0.00,,,0.00,VWS V13.01,2013-11-08 09:41:00,
2013-11-08 03:43:00,36.1,33.8,29.32,South,177,3.1,3.1,91,0.00,,,0.00,VWS V13.01,2013-11-08 09:43:00,
2013-11-08 03:44:00,36.1,33.8,29.32,South,177,3.6,3.6,91,0.00,,,0.00,VWS V13.01,2013-11-08 09:44:00,
2013-11-08 03:46:00,36.1,33.8,29.32,South,177,3.6,3.6,91,0.00,,,0.00,VWS V13.01,2013-11-08 09:46:00,
2013-11-08 03:48:00,36.0,33.6,29.32,South,177,3.6,3.6,91,0.00,,,0.00,VWS V13.01,2013-11-08 09:48:00,
2013-11-08 03:49:00,35.8,33.4,29.32,South,177,3.6,3.6,91,0.00,,,0.00,VWS V13.01,2013-11-08 09:49:00,
2013-11-08 03:51:00,35.8,33.4,29.32,South,177,4.0,4.0,91,0.00,,,0.00,VWS V13.01,2013-11-08 09:51:00,
2013-11-08 03:52:00,35.8,33.4,29.32,South,177,4.0,4.0,91,0.00,,,0.00,VWS V13.01,2013-11-08 09:52:00,
2013-11-08 03:53:00,35.6,33.2,29.32,South,177,3.1,3.1,91,0.00,,,0.00,VWS V13.01,2013-11-08 09:53:00,
2013-11-08 03:54:00,35.6,33.2,29.32,South,177,3.6,3.6,91,0.00,,,0.00,VWS V13.01,2013-11-08 09:54:00,
2013-11-08 03:56:00,35.8,33.4,29.32,South,177,3.6,3.6,91,0.00,,,0.00,VWS V13.01,2013-11-08 09:56:00,
2013-11-08 03:57:00,35.8,33.4,29.32,South,177,4.0,4.0,91,0.00,,,0.00,VWS V13.01,2013-11-08 09:57:00,
2013-11-08 03:58:00,36.0,33.6,29.32,SSW,194,2.7,2.7,91,0.00,,,0.00,VWS V13.01,2013-11-08 09:58:00,
2013-11-08 03:59:00,35.8,33.4,29.32,SSW,194,3.1,3.1,91,0.00,,,0.00,VWS V13.01,2013-11-08 09:59:00,
2013-11-08 04:01:00,35.8,33.4,29.32,South,186,2.7,2.7,91,0.00,,,0.00,VWS V13.01,2013-11-08 10:01:00,
2013-11-08 04:02:00,35.8,33.4,29.32,South,186,3.1,3.1,91,0.00,,,0.00,VWS V13.01,2013-11-08 10:02:00,
2013-11-08 04:03:00,35.8,33.4,29.32,South,186,0.0,0.0,91,0.00,,,0.00,VWS V13.01,2013-11-08 10:03:00,
2013-11-08 04:05:00,35.6,33.2,29.32,South,186,0.0,0.0,91,0.00,,,0.00,VWS V13.01,2013-11-08 10:05:00,
2013-11-08 04:06:00,35.8,33.4,29.32,South,186,0.0,0.0,91,0.00,,,0.00,VWS V13.01,2013-11-08 10:06:00,
2013-11-08 04:07:00,35.8,33.4,29.32,South,186,0.0,0.0,91,0.00,,,0.00,VWS V13.01,2013-11-08 10:07:00,
2013-11-08 04:08:00,36.0,33.6,29.32,South,186,0.0,0.0,91,0.00,,,0.00,VWS V13.01,2013-11-08 10:08:00,
2013-11-08 04:10:00,36.1,33.8,29.32,South,186,0.0,0.0,91,0.00,,,0.00,VWS V13.01,2013-11-08 10:10:00,
2013-11-08 04:11:00,36.1,33.8,29.32,South,185,0.0,0.0,91,0.00,,,0.00,VWS V13.01,2013-11-08 10:11:00,
2013-11-08 04:12:00,36.1,33.8,29.32,South,185,0.0,0.0,91,0.00,,,0.00,VWS V13.01,2013-11-08 10:12:00,
2013-11-08 04:13:00,36.0,33.6,29.32,South,185,0.0,0.0,91,0.00,,,0.00,VWS V13.01,2013-11-08 10:13:00,
2013-11-08 04:15:00,35.8,33.4,29.32,South,185,0.0,0.0,91,0.00,,,0.00,VWS V13.01,2013-11-08 10:15:00,
2013-11-08 04:17:00,35.6,33.2,29.32,South,185,0.0,0.0,91,0.00,,,0.00,VWS V13.01,2013-11-08 10:17:00,
2013-11-08 04:18:00,35.4,34.7,29.32,South,185,0.0,0.0,97,0.00,,,0.00,VWS V13.01,2013-11-08 10:18:00,
2013-11-08 04:20:00,35.4,34.7,29.32,South,185,0.0,0.0,97,0.00,,,0.00,VWS V13.01,2013-11-08 10:20:00,
2013-11-08 04:22:00,35.4,34.7,29.32,South,185,0.0,0.0,97,0.00,,,0.00,VWS V13.01,2013-11-08 10:22:00,
2013-11-08 04:23:00,35.4,34.7,29.32,South,185,0.0,0.0,97,0.00,,,0.00,VWS V13.01,2013-11-08 10:23:00,
2013-11-08 04:24:00,35.2,34.5,29.32,South,185,0.0,0.0,97,0.00,,,0.00,VWS V13.01,2013-11-08 10:24:00,
2013-11-08 04:25:00,35.2,34.5,29.32,South,185,0.0,0.0,97,0.00,,,0.00,VWS V13.01,2013-11-08 10:25:00,
2013-11-08 04:27:00,35.4,34.7,29.32,South,185,0.0,0.0,97,0.00,,,0.00,VWS V13.01,2013-11-08 10:27:00,
2013-11-08 04:28:00,35.4,34.7,29.32,South,185,0.0,0.0,97,0.00,,,0.00,VWS V13.01,2013-11-08 10:28:00,
2013-11-08 04:29:00,35.4,34.7,29.32,South,185,0.0,0.0,97,0.00,,,0.00,VWS V13.01,2013-11-08 10:29:00,
2013-11-08 04:30:00,35.4,34.7,29.32,South,185,0.0,0.0,97,0.00,,,0.00,VWS V13.01,2013-11-08 10:30:00,
2013-11-08 04:32:00,35.4,34.7,29.32,South,185,0.0,0.0,97,0.00,,,0.00,VWS V13.01,2013-11-08 10:32:00,
2013-11-08 04:33:00,35.4,34.7,29.32,South,185,0.0,0.0,97,0.00,,,0.00,VWS V13.01,2013-11-08 10:33:00,
2013-11-08 04:34:00,35.4,34.7,29.32,South,185,4.5,4.5,97,0.00,,,0.00,VWS V13.01,2013-11-08 10:34:00,
2013-11-08 04:35:00,35.4,34.7,29.32,South,176,5.8,5.8,97,0.00,,,0.00,VWS V13.01,2013-11-08 10:35:00,
2013-11-08 04:37:00,35.6,33.2,29.32,South,177,6.3,6.3,91,0.00,,,0.00,VWS V13.01,2013-11-08 10:37:00,
2013-11-08 04:38:00,35.6,33.2,29.32,South,175,4.0,4.0,91,0.00,,,0.00,VWS V13.01,2013-11-08 10:38:00,
2013-11-08 04:39:00,35.4,34.7,29.32,South,181,4.9,4.9,97,0.00,,,0.00,VWS V13.01,2013-11-08 10:39:00,
2013-11-08 04:40:00,35.4,34.7,29.32,South,181,4.5,4.5,97,0.00,,,0.00,VWS V13.01,2013-11-08 10:40:00,
2013-11-08 04:42:00,35.2,34.5,29.32,South,180,5.4,5.4,97,0.00,,,0.00,VWS V13.01,2013-11-08 10:42:00,
2013-11-08 04:43:00,35.2,34.5,29.32,South,179,5.4,5.4,97,0.00,,,0.00,VWS V13.01,2013-11-08 10:43:00,
2013-11-08 04:44:00,35.2,34.5,29.32,South,179,5.4,5.4,97,0.00,,,0.00,VWS V13.01,2013-11-08 10:44:00,
2013-11-08 04:45:00,35.1,34.3,29.32,South,179,5.4,5.4,97,0.00,,,0.00,VWS V13.01,2013-11-08 10:45:00,
2013-11-08 04:47:00,35.2,34.5,29.32,South,177,4.9,4.9,97,0.00,,,0.00,VWS V13.01,2013-11-08 10:47:00,
2013-11-08 04:48:00,35.2,34.5,29.32,South,178,4.9,4.9,97,0.00,,,0.00,VWS V13.01,2013-11-08 10:48:00,
2013-11-08 04:49:00,35.4,34.7,29.32,South,179,4.0,4.0,97,0.00,,,0.00,VWS V13.01,2013-11-08 10:49:00,
2013-11-08 04:50:00,35.6,33.2,29.32,South,179,4.9,4.9,91,0.00,,,0.00,VWS V13.01,2013-11-08 10:50:00,
2013-11-08 04:52:00,36.0,33.6,29.32,SSE,165,4.9,4.9,91,0.00,,,0.00,VWS V13.01,2013-11-08 10:52:00,
2013-11-08 04:53:00,36.0,33.6,29.32,SSE,166,4.0,4.0,91,0.00,,,0.00,VWS V13.01,2013-11-08 10:53:00,
2013-11-08 04:54:00,36.1,33.8,29.32,South,179,4.0,4.0,91,0.00,,,0.00,VWS V13.01,2013-11-08 10:54:00,
2013-11-08 04:55:00,36.1,33.8,29.32,South,182,4.9,4.9,91,0.00,,,0.00,VWS V13.01,2013-11-08 10:55:00,
2013-11-08 04:57:00,36.1,33.8,29.32,South,182,5.4,5.4,91,0.00,,,0.00,VWS V13.01,2013-11-08 10:57:00,
2013-11-08 04:58:00,36.3,34.0,29.32,South,175,4.9,4.9,91,0.00,,,0.00,VWS V13.01,2013-11-08 10:58:00,
2013-11-08 05:00:00,36.1,33.8,29.32,South,177,4.0,4.0,91,0.00,,,0.00,VWS V13.01,2013-11-08 11:00:00,
2013-11-08 05:02:00,36.1,33.8,29.32,South,174,4.5,4.5,91,0.00,,,0.00,VWS V13.01,2013-11-08 11:02:00,
2013-11-08 05:03:00,36.1,33.8,29.32,South,175,5.4,5.4,91,0.00,,,0.00,VWS V13.01,2013-11-08 11:03:00,
2013-11-08 05:05:00,36.0,33.6,29.32,South,181,6.3,6.3,91,0.00,,,0.00,VWS V13.01,2013-11-08 11:05:00,
2013-11-08 05:06:00,36.0,33.6,29.32,South,177,5.8,5.8,91,0.00,,,0.00,VWS V13.01,2013-11-08 11:06:00,
2013-11-08 05:07:00,35.8,33.4,29.32,South,177,5.4,5.4,91,0.00,,,0.00,VWS V13.01,2013-11-08 11:07:00,
2013-11-08 05:08:00,35.8,33.4,29.32,South,177,5.4,5.4,91,0.00,,,0.00,VWS V13.01,2013-11-08 11:08:00,
2013-11-08 05:10:00,35.8,33.4,29.32,South,182,4.9,4.9,91,0.00,,,0.00,VWS V13.01,2013-11-08 11:10:00,
2013-11-08 05:11:00,35.8,33.4,29.32,South,181,4.9,4.9,91,0.00,,,0.00,VWS V13.01,2013-11-08 11:11:00,
2013-11-08 05:12:00,35.8,33.4,29.32,South,178,5.4,5.4,91,0.00,,,0.00,VWS V13.01,2013-11-08 11:12:00,
2013-11-08 05:13:00,35.8,33.4,29.32,South,178,4.9,4.9,91,0.00,,,0.00,VWS V13.01,2013-11-08 11:13:00,
2013-11-08 05:15:00,36.0,33.6,29.32,South,178,5.4,5.4,91,0.00,,,0.00,VWS V13.01,2013-11-08 11:15:00,
2013-11-08 05:16:00,36.1,33.8,29.32,South,172,6.3,6.3,91,0.00,,,0.00,VWS V13.01,2013-11-08 11:16:00,
2013-11-08 05:17:00,36.3,34.0,29.32,South,182,6.3,6.3,91,0.00,,,0.00,VWS V13.01,2013-11-08 11:17:00,
2013-11-08 05:18:00,36.3,34.0,29.32,South,174,5.8,5.8,91,0.00,,,0.00,VWS V13.01,2013-11-08 11:18:00,
2013-11-08 05:20:00,36.5,34.1,29.32,South,179,6.3,6.3,91,0.00,,,0.00,VWS V13.01,2013-11-08 11:20:00,
2013-11-08 05:21:00,36.3,34.0,29.32,South,179,6.3,6.3,91,0.00,,,0.00,VWS V13.01,2013-11-08 11:21:00,
2013-11-08 05:22:00,36.5,34.1,29.32,South,176,5.8,5.8,91,0.00,,,0.00,VWS V13.01,2013-11-08 11:22:00,
2013-11-08 05:23:00,36.5,34.1,29.32,South,175,5.8,5.8,91,0.00,,,0.00,VWS V13.01,2013-11-08 11:23:00,
2013-11-08 05:25:00,36.3,34.0,29.32,South,182,6.3,6.3,91,0.00,,,0.00,VWS V13.01,2013-11-08 11:25:00,
2013-11-08 05:26:00,36.3,34.0,29.32,South,180,5.4,5.4,91,0.00,,,0.00,VWS V13.01,2013-11-08 11:26:00,
2013-11-08 05:27:00,36.5,34.1,29.32,South,183,6.3,6.3,91,0.00,,,0.00,VWS V13.01,2013-11-08 11:27:00,
2013-11-08 05:28:00,36.5,34.1,29.32,South,173,7.2,7.2,91,0.00,,,0.00,VWS V13.01,2013-11-08 11:28:00,
2013-11-08 05:30:00,36.3,34.0,29.32,South,177,4.9,4.9,91,0.00,,,0.00,VWS V13.01,2013-11-08 11:30:00,
2013-11-08 05:31:00,36.3,34.0,29.32,South,179,6.3,6.3,91,0.00,,,0.00,VWS V13.01,2013-11-08 11:31:00,
2013-11-08 05:32:00,36.3,34.0,29.32,South,178,5.8,5.8,91,0.00,,,0.00,VWS V13.01,2013-11-08 11:32:00,
2013-11-08 05:33:00,36.1,33.8,29.32,South,171,5.4,5.4,91,0.00,,,0.00,VWS V13.01,2013-11-08 11:33:00,
2013-11-08 05:35:00,36.3,34.0,29.32,South,170,6.3,6.3,91,0.00,,,0.00,VWS V13.01,2013-11-08 11:35:00,
2013-11-08 05:36:00,36.3,34.0,29.32,SSE,165,4.0,4.0,91,0.00,,,0.00,VWS V13.01,2013-11-08 11:36:00,
2013-11-08 05:37:00,36.3,34.0,29.32,South,177,5.8,5.8,91,0.00,,,0.00,VWS V13.01,2013-11-08 11:37:00,
2013-11-08 05:38:00,36.1,33.8,29.32,South,175,6.7,6.7,91,0.00,,,0.00,VWS V13.01,2013-11-08 11:38:00,
2013-11-08 05:39:00,36.1,33.8,29.32,South,176,5.8,5.8,91,0.00,,,0.00,VWS V13.01,2013-11-08 11:39:00,
2013-11-08 05:41:00,36.1,33.8,29.32,South,169,5.4,5.4,91,0.00,,,0.00,VWS V13.01,2013-11-08 11:41:00,
2013-11-08 05:43:00,36.1,33.8,29.32,South,178,5.4,5.4,91,0.00,,,0.00,VWS V13.01,2013-11-08 11:43:00,
2013-11-08 05:44:00,36.3,34.0,29.32,South,177,5.8,5.8,91,0.00,,,0.00,VWS V13.01,2013-11-08 11:44:00,
2013-11-08 05:46:00,36.3,34.0,29.32,South,177,4.9,4.9,91,0.00,,,0.00,VWS V13.01,2013-11-08 11:46:00,
2013-11-08 05:48:00,36.1,33.8,29.32,South,177,4.0,4.0,91,0.00,,,0.00,VWS V13.01,2013-11-08 11:48:00,
2013-11-08 05:49:00,36.1,33.8,29.32,SSE,149,5.4,5.4,91,0.00,,,0.00,VWS V13.01,2013-11-08 11:49:00,
2013-11-08 05:51:00,36.5,34.1,29.32,South,184,5.4,5.4,91,0.00,,,0.00,VWS V13.01,2013-11-08 11:51:00,
2013-11-08 05:53:00,36.3,34.0,29.32,South,179,6.3,6.3,91,0.00,,,0.00,VWS V13.01,2013-11-08 11:53:00,
2013-11-08 05:54:00,36.7,34.3,29.29,South,179,4.9,4.9,91,0.00,,,0.00,VWS V13.01,2013-11-08 11:54:00,
2013-11-08 05:55:00,36.5,34.1,29.29,South,177,3.6,3.6,91,0.00,,,0.00,VWS V13.01,2013-11-08 11:55:00,
2013-11-08 05:56:00,36.3,34.0,29.29,South,174,4.0,4.0,91,0.00,,,0.00,VWS V13.01,2013-11-08 11:56:00,
2013-11-08 05:58:00,36.5,34.1,29.29,South,179,4.9,4.9,91,0.00,,,0.00,VWS V13.01,2013-11-08 11:58:00,
2013-11-08 05:59:00,36.5,34.1,29.29,SSE,164,4.9,4.9,91,0.00,,,0.00,VWS V13.01,2013-11-08 11:59:00,
2013-11-08 06:00:00,36.7,34.3,29.29,South,175,5.8,5.8,91,0.00,,,0.00,VWS V13.01,2013-11-08 12:00:00,
2013-11-08 06:01:00,36.9,34.5,29.29,South,174,5.4,5.4,91,0.00,,,0.00,VWS V13.01,2013-11-08 12:01:00,
2013-11-08 06:03:00,36.9,34.5,29.29,South,177,4.5,4.5,91,0.00,,,0.00,VWS V13.01,2013-11-08 12:03:00,
2013-11-08 06:04:00,36.7,34.3,29.29,South,177,4.9,4.9,91,0.00,,,0.00,VWS V13.01,2013-11-08 12:04:00,
2013-11-08 06:05:00,36.7,34.3,29.29,South,176,5.8,5.8,91,0.00,,,0.00,VWS V13.01,2013-11-08 12:05:00,
2013-11-08 06:06:00,36.7,34.3,29.29,South,177,4.0,4.0,91,0.00,,,0.00,VWS V13.01,2013-11-08 12:06:00,
2013-11-08 06:07:00,36.7,34.3,29.29,South,181,5.4,5.4,91,0.00,,,0.00,VWS V13.01,2013-11-08 12:07:00,
2013-11-08 06:08:00,36.7,34.3,29.29,South,180,4.0,4.0,91,0.00,,,0.00,VWS V13.01,2013-11-08 12:08:00,
2013-11-08 06:09:00,36.5,34.1,29.29,South,182,3.6,3.6,91,0.00,,,0.00,VWS V13.01,2013-11-08 12:09:00,
2013-11-08 06:10:00,36.5,34.1,29.29,South,177,4.0,4.0,91,0.00,,,0.00,VWS V13.01,2013-11-08 12:10:00,
2013-11-08 06:11:00,36.7,34.3,29.29,SSE,160,3.6,3.6,91,0.00,,,0.00,VWS V13.01,2013-11-08 12:11:00,
2013-11-08 06:12:00,36.7,34.3,29.29,SSE,162,3.6,3.6,91,0.00,,,0.00,VWS V13.01,2013-11-08 12:12:00,
2013-11-08 06:13:00,36.7,34.3,29.29,South,171,4.0,4.0,91,0.00,,,0.00,VWS V13.01,2013-11-08 12:13:00,
2013-11-08 06:14:00,36.9,34.5,29.29,South,178,4.0,4.0,91,0.00,,,0.00,VWS V13.01,2013-11-08 12:14:00,
2013-11-08 06:15:00,36.9,34.5,29.29,SSE,151,6.3,6.3,91,0.00,,,0.00,VWS V13.01,2013-11-08 12:15:00,
2013-11-08 06:17:00,37.0,34.7,29.29,South,170,4.0,4.0,91,0.00,,,0.00,VWS V13.01,2013-11-08 12:17:00,
2013-11-08 06:18:00,37.0,34.7,29.29,South,175,5.8,5.8,91,0.00,,,0.00,VWS V13.01,2013-11-08 12:18:00,
2013-11-08 06:19:00,37.0,34.7,29.29,South,179,4.9,4.9,91,0.00,,,0.00,VWS V13.01,2013-11-08 12:19:00,
2013-11-08 06:20:00,36.9,34.5,29.29,South,173,6.3,6.3,91,0.00,,,0.00,VWS V13.01,2013-11-08 12:20:00,
2013-11-08 06:22:00,36.9,34.5,29.29,South,171,6.3,6.3,91,0.00,,,0.00,VWS V13.01,2013-11-08 12:22:00,
2013-11-08 06:23:00,36.9,34.5,29.29,South,177,5.4,5.4,91,0.00,,,0.00,VWS V13.01,2013-11-08 12:23:00,
2013-11-08 06:24:00,36.9,34.5,29.29,South,178,5.4,5.4,91,0.00,,,0.00,VWS V13.01,2013-11-08 12:24:00,
2013-11-08 06:25:00,36.7,34.3,29.29,South,181,5.8,5.8,91,0.00,,,0.00,VWS V13.01,2013-11-08 12:25:00,
2013-11-08 06:27:00,36.9,34.5,29.29,South,180,6.3,6.3,91,0.00,,,0.00,VWS V13.01,2013-11-08 12:27:00,
2013-11-08 06:28:00,36.9,34.5,29.29,South,173,6.3,6.3,91,0.00,,,0.00,VWS V13.01,2013-11-08 12:28:00,
2013-11-08 06:29:00,36.9,34.5,29.29,South,179,6.3,6.3,91,0.00,,,0.00,VWS V13.01,2013-11-08 12:29:00,
2013-11-08 06:30:00,37.0,34.7,29.29,South,183,5.4,5.4,91,0.00,,,0.00,VWS V13.01,2013-11-08 12:30:00,
2013-11-08 06:32:00,37.2,34.8,29.29,South,175,6.3,6.3,91,0.00,,,0.00,VWS V13.01,2013-11-08 12:32:00,
2013-11-08 06:33:00,37.2,34.8,29.29,South,177,6.3,6.3,91,0.00,,,0.00,VWS V13.01,2013-11-08 12:33:00,
2013-11-08 06:34:00,37.2,34.8,29.29,South,169,6.3,6.3,91,0.00,,,0.00,VWS V13.01,2013-11-08 12:34:00,
2013-11-08 06:35:00,37.4,35.0,29.29,South,173,8.1,8.1,91,0.00,,,0.00,VWS V13.01,2013-11-08 12:35:00,
2013-11-08 06:37:00,37.6,35.2,29.29,South,170,6.3,6.3,91,0.00,,,0.00,VWS V13.01,2013-11-08 12:37:00,
2013-11-08 06:38:00,37.6,35.2,29.29,South,179,5.8,5.8,91,0.00,,,0.00,VWS V13.01,2013-11-08 12:38:00,
2013-11-08 06:39:00,37.4,35.0,29.29,South,180,5.4,5.4,91,0.00,,,0.00,VWS V13.01,2013-11-08 12:39:00,
2013-11-08 06:40:00,37.4,35.0,29.29,South,187,5.8,5.8,91,0.00,,,0.00,VWS V13.01,2013-11-08 12:40:00,
2013-11-08 06:41:00,37.4,35.0,29.29,South,186,10.1,10.1,91,0.00,,,0.00,VWS V13.01,2013-11-08 12:41:00,
2013-11-08 06:42:00,37.8,35.4,29.29,South,174,5.8,5.8,91,0.00,,,0.00,VWS V13.01,2013-11-08 12:42:00,
2013-11-08 06:43:00,37.8,35.4,29.29,South,170,4.0,4.0,91,0.00,,,0.00,VWS V13.01,2013-11-08 12:43:00,
2013-11-08 06:44:00,37.6,35.2,29.29,South,183,6.3,6.3,91,0.00,,,0.00,VWS V13.01,2013-11-08 12:44:00,
2013-11-08 06:46:00,37.6,35.2,29.29,South,178,6.3,6.3,91,0.00,,,0.00,VWS V13.01,2013-11-08 12:46:00,
2013-11-08 06:47:00,37.4,35.0,29.29,South,185,6.3,6.3,91,0.00,,,0.00,VWS V13.01,2013-11-08 12:47:00,
2013-11-08 06:48:00,37.4,35.0,29.29,South,183,5.8,5.8,91,0.00,,,0.00,VWS V13.01,2013-11-08 12:48:00,
2013-11-08 06:49:00,37.6,35.2,29.29,South,177,8.1,8.1,91,0.00,,,0.00,VWS V13.01,2013-11-08 12:49:00,
2013-11-08 06:51:00,37.4,35.0,29.29,South,173,6.3,6.3,91,0.00,,,0.00,VWS V13.01,2013-11-08 12:51:00,
2013-11-08 06:52:00,37.6,35.2,29.29,South,175,7.6,7.6,91,0.00,,,0.00,VWS V13.01,2013-11-08 12:52:00,
2013-11-08 06:53:00,37.6,35.2,29.29,South,180,8.3,8.3,91,0.00,,,0.00,VWS V13.01,2013-11-08 12:53:00,
2013-11-08 06:54:00,37.6,35.2,29.29,South,173,6.3,6.3,91,0.00,,,0.00,VWS V13.01,2013-11-08 12:54:00,
2013-11-08 06:56:00,37.6,35.2,29.29,SSE,154,6.3,6.3,91,0.00,,,0.00,VWS V13.01,2013-11-08 12:56:00,
2013-11-08 06:57:00,37.6,35.2,29.29,South,178,6.3,6.3,91,0.00,,,0.00,VWS V13.01,2013-11-08 12:57:00,
2013-11-08 06:58:00,37.8,35.4,29.29,South,178,8.1,8.1,91,0.00,,,0.00,VWS V13.01,2013-11-08 12:58:00,
2013-11-08 06:59:00,37.8,35.4,29.29,South,172,5.4,5.4,91,0.00,,,0.00,VWS V13.01,2013-11-08 12:59:00,
2013-11-08 07:01:00,37.9,35.5,29.29,South,182,5.4,5.4,91,0.00,,,0.00,VWS V13.01,2013-11-08 13:01:00,
2013-11-08 07:03:00,37.9,35.5,29.29,South,175,6.3,6.3,91,0.00,,,0.00,VWS V13.01,2013-11-08 13:03:00,
2013-11-08 07:04:00,37.8,35.4,29.29,South,174,8.7,8.7,91,0.00,,,0.00,VWS V13.01,2013-11-08 13:04:00,
2013-11-08 07:06:00,38.1,35.7,29.29,South,178,8.1,8.1,91,0.00,,,0.00,VWS V13.01,2013-11-08 13:06:00,
2013-11-08 07:08:00,38.3,35.9,29.29,South,169,5.4,5.4,91,0.00,,,0.00,VWS V13.01,2013-11-08 13:08:00,
2013-11-08 07:09:00,38.5,36.1,29.29,South,174,11.0,11.0,91,0.00,,,0.00,VWS V13.01,2013-11-08 13:09:00,
2013-11-08 07:11:00,38.5,36.1,29.29,South,169,7.6,7.6,91,0.00,,,0.00,VWS V13.01,2013-11-08 13:11:00,
2013-11-08 07:13:00,38.7,36.3,29.29,SSE,157,5.4,5.4,91,0.00,,,0.00,VWS V13.01,2013-11-08 13:13:00,
2013-11-08 07:14:00,38.8,36.4,29.29,South,174,8.7,8.7,91,0.00,,,0.00,VWS V13.01,2013-11-08 13:14:00,
2013-11-08 07:16:00,39.0,36.6,29.29,SSE,154,7.6,7.6,91,0.00,,,0.00,VWS V13.01,2013-11-08 13:16:00,
2013-11-08 07:17:00,39.0,36.6,29.29,South,184,10.5,10.5,91,0.00,,,0.00,VWS V13.01,2013-11-08 13:17:00,
2013-11-08 07:18:00,39.0,36.6,29.29,South,184,8.3,8.3,91,0.00,,,0.00,VWS V13.01,2013-11-08 13:18:00,
2013-11-08 07:19:00,39.0,36.6,29.29,South,187,8.7,8.7,91,0.00,,,0.00,VWS V13.01,2013-11-08 13:19:00,
2013-11-08 07:22:00,39.6,35.4,29.29,South,175,8.1,8.1,85,0.00,,,0.00,VWS V13.01,2013-11-08 13:22:00,
2013-11-08 07:23:00,39.9,35.8,29.29,South,179,8.3,8.3,85,0.00,,,0.00,VWS V13.01,2013-11-08 13:23:00,
2013-11-08 07:24:00,40.3,36.1,29.29,South,175,7.6,7.6,85,0.00,,,0.00,VWS V13.01,2013-11-08 13:24:00,
2013-11-08 07:27:00,40.5,36.3,29.29,South,182,8.3,8.3,85,0.00,,,0.00,VWS V13.01,2013-11-08 13:27:00,
2013-11-08 07:28:00,40.5,36.3,29.29,South,182,8.1,8.1,85,0.00,,,0.00,VWS V13.01,2013-11-08 13:28:00,
2013-11-08 07:29:00,40.1,36.0,29.29,South,175,10.1,10.1,85,0.00,,,0.00,VWS V13.01,2013-11-08 13:29:00,
2013-11-08 07:32:00,40.5,36.3,29.29,South,179,7.6,7.6,85,0.00,,,0.00,VWS V13.01,2013-11-08 13:32:00,
2013-11-08 07:33:00,40.6,36.5,29.29,South,173,4.0,4.0,85,0.00,,,0.00,VWS V13.01,2013-11-08 13:33:00,
2013-11-08 07:34:00,41.4,37.2,29.29,South,175,8.1,8.1,85,0.00,,,0.00,VWS V13.01,2013-11-08 13:34:00,
2013-11-08 07:37:00,41.0,36.8,29.29,South,170,9.2,9.2,85,0.00,,,0.00,VWS V13.01,2013-11-08 13:37:00,
2013-11-08 07:38:00,41.0,36.8,29.29,SSE,167,8.1,8.1,85,0.00,,,0.00,VWS V13.01,2013-11-08 13:38:00,
2013-11-08 07:39:00,41.4,37.2,29.29,South,171,8.7,8.7,85,0.00,,,0.00,VWS V13.01,2013-11-08 13:39:00,
2013-11-08 07:42:00,41.7,37.5,29.29,South,173,8.1,8.1,85,0.00,,,0.00,VWS V13.01,2013-11-08 13:42:00,
2013-11-08 07:43:00,42.3,38.1,29.29,SSE,165,5.8,5.8,85,0.00,,,0.00,VWS V13.01,2013-11-08 13:43:00,
2013-11-08 07:44:00,41.7,37.5,29.29,South,180,8.7,8.7,85,0.00,,,0.00,VWS V13.01,2013-11-08 13:44:00,
2013-11-08 07:47:00,42.1,37.9,29.29,South,172,5.4,5.4,85,0.00,,,0.00,VWS V13.01,2013-11-08 13:47:00,
2013-11-08 07:48:00,41.9,37.7,29.29,South,173,10.1,10.1,85,0.00,,,0.00,VWS V13.01,2013-11-08 13:48:00,
2013-11-08 07:49:00,42.3,38.1,29.29,South,173,5.8,5.8,85,0.00,,,0.00,VWS V13.01,2013-11-08 13:49:00,
2013-11-08 07:52:00,42.1,37.9,29.29,South,180,10.1,10.1,85,0.00,,,0.00,VWS V13.01,2013-11-08 13:52:00,
2013-11-08 07:53:00,42.3,38.1,29.29,SSE,164,11.4,11.4,85,0.00,,,0.00,VWS V13.01,2013-11-08 13:53:00,
2013-11-08 07:54:00,42.3,38.1,29.29,South,171,11.0,11.0,85,0.00,,,0.00,VWS V13.01,2013-11-08 13:54:00,
2013-11-08 07:57:00,42.6,38.4,29.29,SE,144,5.8,5.8,85,0.00,,,0.00,VWS V13.01,2013-11-08 13:57:00,
2013-11-08 07:58:00,42.8,38.6,29.29,SSE,166,7.6,7.6,85,0.00,,,0.00,VWS V13.01,2013-11-08 13:58:00,
2013-11-08 07:59:00,42.6,38.4,29.29,SSE,159,8.7,8.7,85,0.00,,,0.00,VWS V13.01,2013-11-08 13:59:00,
2013-11-08 08:02:00,43.7,39.5,29.29,South,175,10.1,10.1,85,0.00,,,0.00,VWS V13.01,2013-11-08 14:02:00,
2013-11-08 08:03:00,44.1,39.8,29.29,South,176,8.7,8.7,85,0.00,,,0.00,VWS V13.01,2013-11-08 14:03:00,
2013-11-08 08:04:00,43.7,39.5,29.29,South,183,10.1,10.1,85,0.00,,,0.00,VWS V13.01,2013-11-08 14:04:00,
2013-11-08 08:07:00,43.7,39.5,29.29,South,177,10.5,10.5,85,0.00,,,0.00,VWS V13.01,2013-11-08 14:07:00,
2013-11-08 08:08:00,44.2,40.0,29.29,SE,146,8.3,8.3,85,0.00,,,0.00,VWS V13.01,2013-11-08 14:08:00,
2013-11-08 08:09:00,44.1,39.8,29.26,South,179,11.0,11.0,85,0.00,,,0.00,VWS V13.01,2013-11-08 14:09:00,
2013-11-08 08:10:00,44.1,39.8,29.26,SSE,147,9.6,9.6,85,0.00,,,0.00,VWS V13.01,2013-11-08 14:10:00,
2013-11-08 08:12:00,44.4,40.2,29.26,South,175,10.1,10.1,85,0.00,,,0.00,VWS V13.01,2013-11-08 14:12:00,
2013-11-08 08:13:00,43.9,39.7,29.26,South,171,12.8,12.8,85,0.00,,,0.00,VWS V13.01,2013-11-08 14:13:00,
2013-11-08 08:14:00,43.9,39.7,29.26,South,176,11.4,11.4,85,0.00,,,0.00,VWS V13.01,2013-11-08 14:14:00,
2013-11-08 08:15:00,44.1,39.8,29.26,SSE,165,10.1,10.1,85,0.00,,,0.00,VWS V13.01,2013-11-08 14:15:00,
2013-11-08 08:17:00,45.1,39.0,29.26,South,179,8.7,8.7,79,0.00,,,0.00,VWS V13.01,2013-11-08 14:17:00,
2013-11-08 08:18:00,45.1,39.0,29.26,SSW,195,8.1,8.1,79,0.00,,,0.00,VWS V13.01,2013-11-08 14:18:00,
2013-11-08 08:19:00,44.8,38.7,29.26,South,174,8.7,8.7,79,0.00,,,0.00,VWS V13.01,2013-11-08 14:19:00,
2013-11-08 08:20:00,45.0,38.8,29.26,South,173,8.3,8.3,79,0.00,,,0.00,VWS V13.01,2013-11-08 14:20:00,
2013-11-08 08:22:00,46.0,39.9,29.26,SSE,166,11.0,11.0,79,0.00,,,0.00,VWS V13.01,2013-11-08 14:22:00,
2013-11-08 08:23:00,46.0,39.9,29.26,SSE,167,10.5,10.5,79,0.00,,,0.00,VWS V13.01,2013-11-08 14:23:00,
2013-11-08 08:24:00,46.0,39.9,29.26,South,173,8.7,8.7,79,0.00,,,0.00,VWS V13.01,2013-11-08 14:24:00,
2013-11-08 08:25:00,46.2,40.1,29.26,South,182,8.3,8.3,79,0.00,,,0.00,VWS V13.01,2013-11-08 14:25:00,
2013-11-08 08:28:00,45.9,39.7,29.26,South,181,8.1,8.1,79,0.00,,,0.00,VWS V13.01,2013-11-08 14:28:00,
2013-11-08 08:29:00,46.0,39.9,29.26,South,177,9.2,9.2,79,0.00,,,0.00,VWS V13.01,2013-11-08 14:29:00,
2013-11-08 08:30:00,46.2,40.1,29.26,South,174,11.0,11.0,79,0.00,,,0.00,VWS V13.01,2013-11-08 14:30:00,
2013-11-08 08:33:00,46.9,40.8,29.26,SSE,167,8.3,8.3,79,0.00,,,0.00,VWS V13.01,2013-11-08 14:33:00,
2013-11-08 08:34:00,46.8,40.6,29.26,SSE,163,12.3,12.3,79,0.00,,,0.00,VWS V13.01,2013-11-08 14:34:00,
2013-11-08 08:35:00,47.3,41.1,29.26,SSE,160,11.0,11.0,79,0.00,,,0.00,VWS V13.01,2013-11-08 14:35:00,
2013-11-08 08:38:00,47.8,41.7,29.26,South,170,11.0,11.0,79,0.00,,,0.00,VWS V13.01,2013-11-08 14:38:00,
2013-11-08 08:39:00,47.8,41.7,29.26,SSE,161,5.8,5.8,79,0.00,,,0.00,VWS V13.01,2013-11-08 14:39:00,
2013-11-08 08:40:00,46.9,40.8,29.26,South,181,11.9,11.9,79,0.00,,,0.00,VWS V13.01,2013-11-08 14:40:00,
2013-11-08 08:43:00,46.9,40.8,29.26,South,172,12.8,12.8,79,0.00,,,0.00,VWS V13.01,2013-11-08 14:43:00,
2013-11-08 08:44:00,47.1,41.0,29.26,South,182,12.8,12.8,79,0.00,,,0.00,VWS V13.01,2013-11-08 14:44:00,
2013-11-08 08:45:00,47.1,41.0,29.26,South,172,16.8,16.8,79,0.00,,,0.00,VWS V13.01,2013-11-08 14:45:00,
2013-11-08 08:48:00,46.8,40.6,29.26,South,170,9.6,9.6,79,0.00,,,0.00,VWS V13.01,2013-11-08 14:48:00,
2013-11-08 08:49:00,46.9,40.8,29.26,South,186,11.4,11.4,79,0.00,,,0.00,VWS V13.01,2013-11-08 14:49:00,
2013-11-08 08:50:00,46.8,40.6,29.26,SSE,167,10.1,10.1,79,0.00,,,0.00,VWS V13.01,2013-11-08 14:50:00,
2013-11-08 08:53:00,47.1,41.0,29.26,South,170,11.0,11.0,79,0.00,,,0.00,VWS V13.01,2013-11-08 14:53:00,
2013-11-08 08:54:00,47.3,41.1,29.26,SSE,159,10.5,10.5,79,0.00,,,0.00,VWS V13.01,2013-11-08 14:54:00,
2013-11-08 08:55:00,47.5,41.3,29.26,South,171,12.8,12.8,79,0.00,,,0.00,VWS V13.01,2013-11-08 14:55:00,
2013-11-08 08:56:00,47.7,41.5,29.26,SSE,168,11.0,11.0,79,0.00,,,0.00,VWS V13.01,2013-11-08 14:56:00,
2013-11-08 08:58:00,47.7,41.5,29.26,South,186,11.0,11.0,79,0.00,,,0.00,VWS V13.01,2013-11-08 14:58:00,
2013-11-08 08:59:00,47.3,41.1,29.26,South,176,15.0,15.0,79,0.00,,,0.00,VWS V13.01,2013-11-08 14:59:00,
2013-11-08 09:00:00,47.3,41.1,29.26,South,176,11.0,11.0,79,0.00,,,0.00,VWS V13.01,2013-11-08 15:00:00,
2013-11-08 09:01:00,47.7,41.5,29.26,South,169,8.7,8.7,79,0.00,,,0.00,VWS V13.01,2013-11-08 15:01:00,
2013-11-08 09:03:00,47.3,41.1,29.26,South,173,11.9,11.9,79,0.00,,,0.00,VWS V13.01,2013-11-08 15:03:00,
2013-11-08 09:04:00,47.7,41.5,29.26,South,178,10.5,10.5,79,0.00,,,0.00,VWS V13.01,2013-11-08 15:04:00,
2013-11-08 09:05:00,48.0,41.8,29.26,South,170,12.8,12.8,79,0.00,,,0.00,VWS V13.01,2013-11-08 15:05:00,
2013-11-08 09:06:00,48.4,40.1,29.26,SSE,167,12.3,12.3,73,0.00,,,0.00,VWS V13.01,2013-11-08 15:06:00,
2013-11-08 09:08:00,48.6,40.3,29.26,South,183,10.1,10.1,73,0.00,,,0.00,VWS V13.01,2013-11-08 15:08:00,
2013-11-08 09:09:00,48.4,40.1,29.26,South,174,10.1,10.1,73,0.00,,,0.00,VWS V13.01,2013-11-08 15:09:00,
2013-11-08 09:10:00,48.4,40.1,29.26,SSE,165,15.0,15.0,73,0.00,,,0.00,VWS V13.01,2013-11-08 15:10:00,
2013-11-08 09:11:00,48.4,40.1,29.26,South,171,9.2,9.2,73,0.00,,,0.00,VWS V13.01,2013-11-08 15:11:00,
2013-11-08 09:13:00,48.2,40.0,29.26,SSW,198,11.0,11.0,73,0.00,,,0.00,VWS V13.01,2013-11-08 15:13:00,
2013-11-08 09:14:00,48.4,40.1,29.26,SSW,202,11.0,11.0,73,0.00,,,0.00,VWS V13.01,2013-11-08 15:14:00,
2013-11-08 09:15:00,48.4,40.1,29.26,South,183,11.0,11.0,73,0.00,,,0.00,VWS V13.01,2013-11-08 15:15:00,
2013-11-08 09:16:00,48.4,40.1,29.26,SSE,168,13.6,13.6,73,0.00,,,0.00,VWS V13.01,2013-11-08 15:16:00,
2013-11-08 09:18:00,48.4,40.1,29.26,South,176,11.0,11.0,73,0.00,,,0.00,VWS V13.01,2013-11-08 15:18:00,
2013-11-08 09:19:00,48.7,40.5,29.26,South,179,12.3,12.3,73,0.00,,,0.00,VWS V13.01,2013-11-08 15:19:00,
2013-11-08 09:20:00,48.4,40.1,29.26,SSE,168,12.8,12.8,73,0.00,,,0.00,VWS V13.01,2013-11-08 15:20:00,
2013-11-08 09:21:00,48.2,40.0,29.26,South,171,11.9,11.9,73,0.00,,,0.00,VWS V13.01,2013-11-08 15:21:00,
2013-11-08 09:23:00,48.7,40.5,29.26,South,189,11.0,11.0,73,0.00,,,0.00,VWS V13.01,2013-11-08 15:23:00,
2013-11-08 09:25:00,49.1,40.8,29.26,South,181,13.2,13.2,73,0.00,,,0.00,VWS V13.01,2013-11-08 15:25:00,
2013-11-08 09:26:00,49.8,41.5,29.26,South,188,10.1,10.1,73,0.00,,,0.00,VWS V13.01,2013-11-08 15:26:00,
2013-11-08 09:28:00,49.3,41.0,29.26,SSE,167,13.2,13.2,73,0.00,,,0.00,VWS V13.01,2013-11-08 15:28:00,
2013-11-08 09:30:00,49.3,41.0,29.26,South,171,15.0,15.0,73,0.00,,,0.00,VWS V13.01,2013-11-08 15:30:00,
2013-11-08 09:31:00,49.6,41.3,29.26,South,190,12.8,12.8,73,0.00,,,0.00,VWS V13.01,2013-11-08 15:31:00,
2013-11-08 09:33:00,50.2,41.9,29.26,South,189,8.3,8.3,73,0.00,,,0.00,VWS V13.01,2013-11-08 15:33:00,
2013-11-08 09:35:00,50.4,42.0,29.26,SSE,168,11.9,11.9,73,0.00,,,0.00,VWS V13.01,2013-11-08 15:35:00,
2013-11-08 09:36:00,50.0,41.7,29.26,South,190,8.7,8.7,73,0.00,,,0.00,VWS V13.01,2013-11-08 15:36:00,
2013-11-08 09:38:00,50.2,41.9,29.23,SSE,159,11.0,11.0,73,0.00,,,0.00,VWS V13.01,2013-11-08 15:38:00,
2013-11-08 09:40:00,50.5,42.2,29.23,SSE,162,12.3,12.3,73,0.00,,,0.00,VWS V13.01,2013-11-08 15:40:00,
2013-11-08 09:41:00,50.4,42.0,29.23,SSE,167,11.0,11.0,73,0.00,,,0.00,VWS V13.01,2013-11-08 15:41:00,
2013-11-08 09:42:00,50.2,41.9,29.23,South,170,13.2,13.2,73,0.00,,,0.00,VWS V13.01,2013-11-08 15:42:00,
2013-11-08 09:44:00,50.4,42.0,29.23,South,188,8.3,8.3,73,0.00,,,0.00,VWS V13.01,2013-11-08 15:44:00,
2013-11-08 09:45:00,50.2,41.9,29.23,South,172,11.0,11.0,73,0.00,,,0.00,VWS V13.01,2013-11-08 15:45:00,
2013-11-08 09:46:00,50.0,41.7,29.23,South,171,13.6,13.6,73,0.00,,,0.00,VWS V13.01,2013-11-08 15:46:00,
2013-11-08 09:47:00,50.0,41.7,29.23,South,175,12.8,12.8,73,0.00,,,0.00,VWS V13.01,2013-11-08 15:47:00,
2013-11-08 09:49:00,50.7,42.4,29.23,SSE,159,8.1,8.1,73,0.00,,,0.00,VWS V13.01,2013-11-08 15:49:00,
2013-11-08 09:50:00,50.7,42.4,29.23,SE,141,13.2,13.2,73,0.00,,,0.00,VWS V13.01,2013-11-08 15:50:00,
2013-11-08 09:51:00,50.7,42.4,29.23,South,170,11.0,11.0,73,0.00,,,0.00,VWS V13.01,2013-11-08 15:51:00,
2013-11-08 09:52:00,51.3,42.9,29.23,SSE,164,10.1,10.1,73,0.00,,,0.00,VWS V13.01,2013-11-08 15:52:00,
2013-11-08 09:54:00,51.4,43.1,29.23,South,178,12.3,12.3,73,0.00,,,0.00,VWS V13.01,2013-11-08 15:54:00,
2013-11-08 09:55:00,51.1,42.7,29.23,South,177,11.0,11.0,73,0.00,,,0.00,VWS V13.01,2013-11-08 15:55:00,
2013-11-08 09:56:00,50.7,42.4,29.23,South,175,10.5,10.5,73,0.00,,,0.00,VWS V13.01,2013-11-08 15:56:00,
2013-11-08 09:57:00,50.7,42.4,29.23,SSW,196,11.0,11.0,73,0.00,,,0.00,VWS V13.01,2013-11-08 15:57:00,
2013-11-08 09:59:00,50.9,42.6,29.23,SSE,167,10.1,10.1,73,0.00,,,0.00,VWS V13.01,2013-11-08 15:59:00,
2013-11-08 10:00:00,51.1,42.7,29.23,South,172,10.1,10.1,73,0.00,,,0.00,VWS V13.01,2013-11-08 16:00:00,
2013-11-08 10:01:00,51.4,43.1,29.23,South,176,13.2,13.2,73,0.00,,,0.00,VWS V13.01,2013-11-08 16:01:00,
2013-11-08 10:02:00,51.3,42.9,29.23,SSW,201,10.1,10.1,73,0.00,,,0.00,VWS V13.01,2013-11-08 16:02:00,
2013-11-08 10:04:00,51.6,43.3,29.23,South,172,8.7,8.7,73,0.00,,,0.00,VWS V13.01,2013-11-08 16:04:00,
2013-11-08 10:05:00,52.5,44.1,29.23,South,184,8.1,8.1,73,0.00,,,0.00,VWS V13.01,2013-11-08 16:05:00,
2013-11-08 10:06:00,52.5,44.1,29.23,SSE,167,8.1,8.1,73,0.00,,,0.00,VWS V13.01,2013-11-08 16:06:00,
2013-11-08 10:07:00,52.3,44.0,29.23,South,175,10.1,10.1,73,0.00,,,0.00,VWS V13.01,2013-11-08 16:07:00,
2013-11-08 10:08:00,52.3,44.0,29.23,South,182,8.3,8.3,73,0.00,,,0.00,VWS V13.01,2013-11-08 16:08:00,
2013-11-08 10:09:00,52.0,43.6,29.23,SSE,167,12.3,12.3,73,0.00,,,0.00,VWS V13.01,2013-11-08 16:09:00,
2013-11-08 10:10:00,52.0,43.6,29.23,SSE,167,13.2,13.2,73,0.00,,,0.00,VWS V13.01,2013-11-08 16:10:00,
2013-11-08 10:11:00,52.0,43.6,29.23,SSE,164,10.1,10.1,73,0.00,,,0.00,VWS V13.01,2013-11-08 16:11:00,
2013-11-08 10:13:00,52.5,44.1,29.23,SSW,197,10.5,10.5,73,0.00,,,0.00,VWS V13.01,2013-11-08 16:13:00,
2013-11-08 10:14:00,53.1,44.7,29.23,SSE,159,8.3,8.3,73,0.00,,,0.00,VWS V13.01,2013-11-08 16:14:00,
2013-11-08 10:15:00,53.1,44.7,29.23,South,172,12.3,12.3,73,0.00,,,0.00,VWS V13.01,2013-11-08 16:15:00,
2013-11-08 10:16:00,53.1,44.7,29.23,South,182,11.0,11.0,73,0.00,,,0.00,VWS V13.01,2013-11-08 16:16:00,
2013-11-08 10:18:00,53.4,45.0,29.23,South,172,10.1,10.1,73,0.00,,,0.00,VWS V13.01,2013-11-08 16:18:00,
2013-11-08 10:19:00,52.9,44.5,29.23,South,178,11.0,11.0,73,0.00,,,0.00,VWS V13.01,2013-11-08 16:19:00,
2013-11-08 10:20:00,52.9,44.5,29.23,South,180,9.6,9.6,73,0.00,,,0.00,VWS V13.01,2013-11-08 16:20:00,
2013-11-08 10:21:00,53.1,44.7,29.23,South,170,7.6,7.6,73,0.00,,,0.00,VWS V13.01,2013-11-08 16:21:00,
2013-11-08 10:23:00,52.9,44.5,29.23,South,173,8.1,8.1,73,0.00,,,0.00,VWS V13.01,2013-11-08 16:23:00,
2013-11-08 10:24:00,53.2,44.8,29.23,SSE,158,12.8,12.8,73,0.00,,,0.00,VWS V13.01,2013-11-08 16:24:00,
2013-11-08 10:26:00,53.6,42.9,29.23,South,172,9.2,9.2,67,0.00,,,0.00,VWS V13.01,2013-11-08 16:26:00,
2013-11-08 10:28:00,53.6,42.9,29.23,South,172,10.1,10.1,67,0.00,,,0.00,VWS V13.01,2013-11-08 16:28:00,
2013-11-08 10:29:00,54.0,43.3,29.23,South,169,11.0,11.0,67,0.00,,,0.00,VWS V13.01,2013-11-08 16:29:00,
2013-11-08 10:31:00,54.0,43.3,29.23,South,186,13.2,13.2,67,0.00,,,0.00,VWS V13.01,2013-11-08 16:31:00,
2013-11-08 10:33:00,54.1,43.4,29.23,South,185,12.3,12.3,67,0.00,,,0.00,VWS V13.01,2013-11-08 16:33:00,
2013-11-08 10:34:00,53.8,43.1,29.23,South,190,12.8,12.8,67,0.00,,,0.00,VWS V13.01,2013-11-08 16:34:00,
2013-11-08 10:36:00,54.3,43.6,29.23,SSW,201,12.8,12.8,67,0.00,,,0.00,VWS V13.01,2013-11-08 16:36:00,
2013-11-08 10:39:00,55.2,44.5,29.23,South,186,8.7,8.7,67,0.00,,,0.00,VWS V13.01,2013-11-08 16:39:00,
2013-11-08 10:40:00,55.2,44.5,29.23,South,169,11.0,11.0,67,0.00,,,0.00,VWS V13.01,2013-11-08 16:40:00,
2013-11-08 10:41:00,55.4,44.6,29.23,SSW,203,12.8,12.8,67,0.00,,,0.00,VWS V13.01,2013-11-08 16:41:00,
2013-11-08 10:42:00,55.2,44.5,29.23,South,188,12.8,12.8,67,0.00,,,0.00,VWS V13.01,2013-11-08 16:42:00,
2013-11-08 10:44:00,55.9,45.2,29.23,SSW,205,10.1,10.1,67,0.00,,,0.00,VWS V13.01,2013-11-08 16:44:00,
2013-11-08 10:45:00,55.8,45.0,29.23,South,186,12.8,12.8,67,0.00,,,0.00,VWS V13.01,2013-11-08 16:45:00,
2013-11-08 10:46:00,55.4,44.6,29.23,South,178,13.2,13.2,67,0.00,,,0.00,VWS V13.01,2013-11-08 16:46:00,
2013-11-08 10:47:00,55.9,45.2,29.23,South,189,13.2,13.2,67,0.00,,,0.00,VWS V13.01,2013-11-08 16:47:00,
2013-11-08 10:49:00,55.9,45.2,29.23,South,180,12.8,12.8,67,0.00,,,0.00,VWS V13.01,2013-11-08 16:49:00,
2013-11-08 10:50:00,56.5,45.7,29.23,SSE,168,11.4,11.4,67,0.00,,,0.00,VWS V13.01,2013-11-08 16:50:00,
2013-11-08 10:51:00,56.5,45.7,29.23,SSE,168,10.1,10.1,67,0.00,,,0.00,VWS V13.01,2013-11-08 16:51:00,
2013-11-08 10:52:00,56.8,46.0,29.23,SSE,157,12.8,12.8,67,0.00,,,0.00,VWS V13.01,2013-11-08 16:52:00,
2013-11-08 10:54:00,56.5,45.7,29.21,SSE,164,8.7,8.7,67,0.00,,,0.00,VWS V13.01,2013-11-08 16:54:00,
2013-11-08 10:55:00,56.3,45.5,29.21,SSE,153,13.6,13.6,67,0.00,,,0.00,VWS V13.01,2013-11-08 16:55:00,
2013-11-08 10:56:00,56.5,45.7,29.21,SSW,194,13.2,13.2,67,0.00,,,0.00,VWS V13.01,2013-11-08 16:56:00,
2013-11-08 10:57:00,57.0,46.2,29.21,South,189,11.0,11.0,67,0.00,,,0.00,VWS V13.01,2013-11-08 16:57:00,
2013-11-08 10:59:00,57.0,46.2,29.21,SSE,166,13.2,13.2,67,0.00,,,0.00,VWS V13.01,2013-11-08 16:59:00,
2013-11-08 11:00:00,56.8,46.0,29.21,SSE,154,13.2,13.2,67,0.00,,,0.00,VWS V13.01,2013-11-08 17:00:00,
2013-11-08 11:01:00,56.8,46.0,29.21,SSW,205,10.1,10.1,67,0.00,,,0.00,VWS V13.01,2013-11-08 17:01:00,
2013-11-08 11:02:00,57.0,46.2,29.21,SSW,193,10.1,10.1,67,0.00,,,0.00,VWS V13.01,2013-11-08 17:02:00,
2013-11-08 11:04:00,57.4,44.1,29.21,SSW,204,11.9,11.9,61,0.00,,,0.00,VWS V13.01,2013-11-08 17:04:00,
2013-11-08 11:05:00,57.6,44.2,29.21,SSW,203,12.8,12.8,61,0.00,,,0.00,VWS V13.01,2013-11-08 17:05:00,
2013-11-08 11:06:00,57.7,44.4,29.21,South,183,11.0,11.0,61,0.00,,,0.00,VWS V13.01,2013-11-08 17:06:00,
2013-11-08 11:07:00,57.9,44.6,29.21,South,190,11.0,11.0,61,0.00,,,0.00,VWS V13.01,2013-11-08 17:07:00,
2013-11-08 11:09:00,58.1,44.7,29.21,SSW,201,11.0,11.0,61,0.00,,,0.00,VWS V13.01,2013-11-08 17:09:00,
2013-11-08 11:10:00,57.9,44.6,29.21,SSW,195,13.2,13.2,61,0.00,,,0.00,VWS V13.01,2013-11-08 17:10:00,
2013-11-08 11:11:00,58.3,44.9,29.21,South,187,12.3,12.3,61,0.00,,,0.00,VWS V13.01,2013-11-08 17:11:00,
2013-11-08 11:12:00,58.3,44.9,29.21,SSE,158,10.1,10.1,61,0.00,,,0.00,VWS V13.01,2013-11-08 17:12:00,
2013-11-08 11:14:00,58.1,44.7,29.21,South,184,15.0,15.0,61,0.00,,,0.00,VWS V13.01,2013-11-08 17:14:00,
2013-11-08 11:15:00,58.1,44.7,29.21,SSE,157,12.3,12.3,61,0.00,,,0.00,VWS V13.01,2013-11-08 17:15:00,
2013-11-08 11:16:00,58.5,45.1,29.21,SSE,164,12.3,12.3,61,0.00,,,0.00,VWS V13.01,2013-11-08 17:16:00,
2013-11-08 11:17:00,58.5,45.1,29.21,South,170,13.2,13.2,61,0.00,,,0.00,VWS V13.01,2013-11-08 17:17:00,
2013-11-08 11:20:00,58.1,44.7,29.21,South,181,14.1,14.1,61,0.00,,,0.00,VWS V13.01,2013-11-08 17:20:00,
2013-11-08 11:21:00,58.3,44.9,29.21,SSW,197,8.3,8.3,61,0.00,,,0.00,VWS V13.01,2013-11-08 17:21:00,
2013-11-08 11:22:00,59.4,45.9,29.21,South,188,11.0,11.0,61,0.00,,,0.00,VWS V13.01,2013-11-08 17:22:00,
2013-11-08 11:25:00,60.3,46.8,29.18,SSW,203,7.6,7.6,61,0.00,,,0.00,VWS V13.01,2013-11-08 17:25:00,
2013-11-08 11:26:00,59.9,46.4,29.18,South,172,12.3,12.3,61,0.00,,,0.00,VWS V13.01,2013-11-08 17:26:00,
2013-11-08 11:27:00,60.3,46.8,29.18,South,190,13.2,13.2,61,0.00,,,0.00,VWS V13.01,2013-11-08 17:27:00,
2013-11-08 11:30:00,61.0,47.5,29.18,SSE,165,10.1,10.1,61,0.00,,,0.00,VWS V13.01,2013-11-08 17:30:00,
2013-11-08 11:31:00,60.6,47.1,29.18,South,191,9.6,9.6,61,0.00,,,0.00,VWS V13.01,2013-11-08 17:31:00,
2013-11-08 11:32:00,60.6,47.1,29.18,South,176,10.1,10.1,61,0.00,,,0.00,VWS V13.01,2013-11-08 17:32:00,
2013-11-08 11:35:00,59.9,46.4,29.18,SSW,207,15.4,15.4,61,0.00,,,0.00,VWS V13.01,2013-11-08 17:35:00,
2013-11-08 11:36:00,59.7,46.3,29.18,South,176,16.3,16.3,61,0.00,,,0.00,VWS V13.01,2013-11-08 17:36:00,
2013-11-08 11:37:00,59.7,46.3,29.18,South,182,15.0,15.0,61,0.00,,,0.00,VWS V13.01,2013-11-08 17:37:00,
2013-11-08 11:40:00,59.9,46.4,29.18,South,186,16.3,16.3,61,0.00,,,0.00,VWS V13.01,2013-11-08 17:40:00,
2013-11-08 11:41:00,59.9,46.4,29.18,South,173,11.9,11.9,61,0.00,,,0.00,VWS V13.01,2013-11-08 17:41:00,
2013-11-08 11:42:00,59.9,46.4,29.18,SSE,162,15.4,15.4,61,0.00,,,0.00,VWS V13.01,2013-11-08 17:42:00,
2013-11-08 11:45:00,59.4,45.9,29.18,South,176,16.8,16.8,61,0.00,,,0.00,VWS V13.01,2013-11-08 17:45:00,
2013-11-08 11:46:00,59.7,46.3,29.18,SSW,196,14.5,14.5,61,0.00,,,0.00,VWS V13.01,2013-11-08 17:46:00,
2013-11-08 11:47:00,59.5,46.1,29.18,SSW,202,17.0,17.0,61,0.00,,,0.00,VWS V13.01,2013-11-08 17:47:00,
2013-11-08 11:50:00,60.1,46.6,29.18,SSW,197,15.0,15.0,61,0.00,,,0.00,VWS V13.01,2013-11-08 17:50:00,
2013-11-08 11:51:00,60.4,46.9,29.18,South,170,12.3,12.3,61,0.00,,,0.00,VWS V13.01,2013-11-08 17:51:00,
2013-11-08 11:52:00,60.3,46.8,29.18,South,188,10.5,10.5,61,0.00,,,0.00,VWS V13.01,2013-11-08 17:52:00,
2013-11-08 11:55:00,60.3,46.8,29.18,SSW,202,17.4,17.4,61,0.00,,,0.00,VWS V13.01,2013-11-08 17:55:00,
2013-11-08 11:56:00,60.3,46.8,29.18,South,174,15.4,15.4,61,0.00,,,0.00,VWS V13.01,2013-11-08 17:56:00,
2013-11-08 11:57:00,60.6,47.1,29.18,SSW,199,11.0,11.0,61,0.00,,,0.00,VWS V13.01,2013-11-08 17:57:00,
2013-11-08 11:58:00,61.0,47.5,29.18,South,173,15.4,15.4,61,0.00,,,0.00,VWS V13.01,2013-11-08 17:58:00,
2013-11-08 12:00:00,61.0,47.5,29.18,SSW,201,13.2,13.2,61,0.00,,,0.00,VWS V13.01,2013-11-08 18:00:00,
2013-11-08 12:01:00,61.0,47.5,29.18,South,184,8.1,8.1,61,0.00,,,0.00,VWS V13.01,2013-11-08 18:01:00,